DW7783 Albolote (Granada) ES current weather conditions

sailwx.info

Wind from 012 at 89 knots

Air temperature 12.2° C
Dewpoint 11.1° C

Last reported at 2019-Oct-19 03:00 UTC.
Time now 2019-Oct-19 04:15 UTC

Location: N 37°19' W 003°39'.
View on Google Maps.

See reports from other nearby stations

  
Tides and Currents Weather Stations Pressure Air Temp Water Temp Dewpoint Dewpoint Depression Visibility Wind Speed Wind Dir Waves Ship Positions
date/time (UTC)wind fromknots sea level pressurealtimeterstation pressurevisibilityair tempwater tempwave heightnotes
2019-Oct-19 03:00 012 89 12.2
2019-Oct-19 02:45 289 89 11.7
2019-Oct-19 02:30 012 80 11.1
2019-Oct-19 02:15 279 0 11.1
2019-Oct-19 02:00 278 0 11.7
2019-Oct-19 01:46 265 51 12.2
2019-Oct-19 01:31 263 12.8
2019-Oct-19 01:16 258 0 13.3
2019-Oct-19 01:01 252 0 13.9
2019-Oct-19 00:46 244 13.3
2019-Oct-19 00:31 239 13.9
2019-Oct-19 00:16 240 14.4
2019-Oct-19 00:01 240 13.9
2019-Oct-18 23:46 240 13.9
2019-Oct-18 23:31 239 0 13.9
2019-Oct-18 23:16 202 13.9
2019-Oct-18 23:02 199 15.0
2019-Oct-18 22:46 199 15.0
2019-Oct-18 22:31 206 0 15.0
2019-Oct-18 22:15 223 15.0
2019-Oct-18 22:01 223 15.6
2019-Oct-18 21:46 223 15.6
2019-Oct-18 21:31 223 15.6
2019-Oct-18 21:16 223 16.1
2019-Oct-18 21:01 223 16.7
2019-Oct-18 20:46 223 0 16.7
2019-Oct-18 20:31 223 0 17.2
2019-Oct-18 20:15 221 1 17.2
2019-Oct-18 20:00 271 2 17.2
2019-Oct-18 19:46 271 1 17.2
2019-Oct-18 19:30 270 1 17.2
2019-Oct-18 19:15 271 1 17.8
2019-Oct-18 19:00 271 0 18.3
2019-Oct-18 18:45 271 1 18.3
2019-Oct-18 18:30 271 0 18.9
2019-Oct-18 18:16 272 3 19.4
2019-Oct-18 18:00 272 1 20.0
2019-Oct-18 17:45 253 2 20.6
2019-Oct-18 17:30 241 4 21.1
2019-Oct-18 17:15 244 4 21.7
2019-Oct-18 17:00 252 5 22.2
2019-Oct-18 16:45 241 5 22.8
2019-Oct-18 16:30 206 5 23.3
2019-Oct-18 16:15 205 4 23.9
2019-Oct-18 16:00 231 5 23.9
2019-Oct-18 15:45 223 5 24.4
2019-Oct-18 15:30 250 5 24.4
2019-Oct-18 15:17 217 5 25.0
2019-Oct-18 15:01 183 4 25.0
2019-Oct-18 14:47 215 4 25.0
2019-Oct-18 14:31 225 5 23.9
2019-Oct-18 14:16 243 4 24.4
2019-Oct-18 14:02 248 4 25.0
2019-Oct-18 13:46 256 4 24.4
2019-Oct-18 13:32 239 5 23.9
2019-Oct-18 13:17 175 3 23.9
2019-Oct-18 13:01 140 4 23.9
2019-Oct-18 12:46 189 3 23.9
2019-Oct-18 12:31 174 4 23.3
2019-Oct-18 12:17 196 4 22.8
2019-Oct-18 12:01 189 4 22.8
2019-Oct-18 11:46 221 4 21.1
2019-Oct-18 11:31 167 4 21.7
2019-Oct-18 11:15 189 2 21.1
2019-Oct-18 11:01 188 2 19.4
2019-Oct-18 10:45 187 2 19.4
2019-Oct-18 10:31 187 2 18.9
2019-Oct-18 10:15 185 2 18.9
2019-Oct-18 10:01 186 2 18.3
2019-Oct-18 09:45 181 3 17.2
2019-Oct-18 09:30 063 2 16.7
2019-Oct-18 09:15 061 0 16.1
2019-Oct-18 09:00 062 0 15.0
2019-Oct-18 08:45 061 2 13.3
2019-Oct-18 08:30 041 3 12.8
2019-Oct-18 08:16 040 2 11.1
2019-Oct-18 08:02 040 2 10.6
2019-Oct-18 07:47 040 2 10.0
2019-Oct-18 07:32 042 3 8.9
2019-Oct-18 07:18 058 2 8.3
2019-Oct-18 07:00 059 1 7.8
2019-Oct-18 06:46 055 0 7.2
2019-Oct-18 06:31 052 1 6.7
2019-Oct-18 06:16 067 1 7.2
2019-Oct-18 06:01 073 2 7.2
2019-Oct-18 05:46 082 1 7.2
2019-Oct-18 05:31 061 2 7.2
2019-Oct-18 05:16 065 2 7.2
2019-Oct-18 05:01 066 2 7.8
2019-Oct-18 04:45 060 1 7.8
2019-Oct-18 04:30 055 2 7.8
2019-Oct-18 04:16 058 1 7.8
2019-Oct-18 04:00 051 2 7.8
2019-Oct-18 03:45 048 2 7.8
2019-Oct-18 03:30 074 3 7.8
2019-Oct-18 03:16 068 2 8.3
2019-Oct-18 03:00 061 2 8.3
2019-Oct-18 02:45 061 2 8.3
2019-Oct-18 02:30 062 2 8.9
2019-Oct-18 02:15 055 1 8.9
2019-Oct-18 02:00 027 2 8.9
2019-Oct-18 01:45 051 2 8.9
2019-Oct-18 01:32 073 1 9.4
2019-Oct-18 01:17 056 2 9.4
2019-Oct-18 01:01 056 2 10.0
2019-Oct-18 00:46 050 1 9.4
2019-Oct-18 00:31 056 1 9.4
2019-Oct-18 00:17 058 1 10.0
2019-Oct-18 00:01 051 1 10.0
2019-Oct-17 23:46 054 1 10.0
2019-Oct-17 23:32 057 0 10.6
2019-Oct-17 23:16 053 1 11.1
2019-Oct-17 23:01 061 1 11.1
2019-Oct-17 22:46 055 1 11.1
2019-Oct-17 22:31 047 1 12.2
2019-Oct-17 22:16 052 1 12.2
2019-Oct-17 22:01 046 0 12.8
2019-Oct-17 21:46 050 0 13.3
2019-Oct-17 21:30 040 0 12.8
2019-Oct-17 21:16 033 13.3
2019-Oct-17 21:01 043 0 13.3
2019-Oct-17 20:46 037 0 13.9
2019-Oct-17 20:31 036 0 14.4
2019-Oct-17 20:16 051 0 14.4
2019-Oct-17 20:00 045 0 15.0
2019-Oct-17 19:45 028 0 15.0
2019-Oct-17 19:30 271 1 15.0
2019-Oct-17 19:16 268 1 15.6
2019-Oct-17 19:01 268 1 16.1
2019-Oct-17 18:45 269 1 16.7
2019-Oct-17 18:31 268 0 17.8
2019-Oct-17 18:15 269 0 17.8
2019-Oct-17 18:01 268 1 18.9
2019-Oct-17 17:45 265 2 19.4
2019-Oct-17 17:31 258 4 20.0
2019-Oct-17 17:15 258 2 21.1
2019-Oct-17 17:00 253 3 22.2
2019-Oct-17 16:45 259 4 22.2
2019-Oct-17 16:30 260 4 22.8
2019-Oct-17 16:15 264 3 23.3
2019-Oct-17 16:01 296 4 23.3
2019-Oct-17 15:46 256 5 23.9
2019-Oct-17 15:30 250 4 23.3
2019-Oct-17 15:15 194 3 23.9
2019-Oct-17 15:00 196 4 23.9
2019-Oct-17 14:45 252 4 23.3
2019-Oct-17 14:30 239 19 23.3
2019-Oct-17 14:15 214 3 23.3
2019-Oct-17 14:00 185 4 23.3
2019-Oct-17 13:45 244 3 22.8
2019-Oct-17 13:30 229 4 22.2
2019-Oct-17 13:15 219 3 22.8
2019-Oct-17 13:00 150 3 22.2
2019-Oct-17 12:45 217 5 22.2
2019-Oct-17 12:31 194 4 22.2
2019-Oct-17 12:30 192 3 22.2
2019-Oct-17 12:16 260 2 21.7
2019-Oct-17 12:01 214 2 20.6
2019-Oct-17 11:46 214 4 21.1
2019-Oct-17 11:32 229 3 20.0
2019-Oct-17 11:16 212 3 20.0
2019-Oct-17 11:01 194 4 18.9
2019-Oct-17 10:46 195 3 18.9
2019-Oct-17 10:30 214 3 17.8
2019-Oct-17 10:15 200 4 17.2
2019-Oct-17 10:00 173 3 17.2
2019-Oct-17 09:46 171 1 16.7
2019-Oct-17 09:30 069 1 16.1
2019-Oct-17 09:15 069 0 15.0
2019-Oct-17 09:00 069 2 13.3
2019-Oct-17 08:45 069 2 12.2
2019-Oct-17 08:30 069 2 11.1
2019-Oct-17 08:15 054 3 10.0
2019-Oct-17 08:01 071 2 8.9
2019-Oct-17 07:47 065 3 7.8
2019-Oct-17 07:31 057 3 7.2
2019-Oct-17 07:17 063 2 6.1
2019-Oct-17 07:01 042 2 5.6
2019-Oct-17 06:46 074 2 5.0
2019-Oct-17 06:31 044 2 4.4
2019-Oct-17 06:15 065 2 4.4
2019-Oct-17 06:00 058 2 5.0
2019-Oct-17 05:46 062 2 5.0
2019-Oct-17 05:31 047 2 5.0
2019-Oct-17 05:15 074 2 5.6
2019-Oct-17 05:00 065 2 5.0
2019-Oct-17 04:45 050 2 5.0
2019-Oct-17 04:30 064 2 5.0
2019-Oct-17 04:16 061 2 5.6
2019-Oct-17 04:00 059 2 5.6